Location: Jetmore Motorplex
(37.9889°N, 99.8876°W)
Time: 15:01:28
(UTC+00:00)

Cosmos 921 Rocket - Pass Details

Date: 17 February 2020
Orbit: 572 x 631 km, 75.8° (Epoch: 27 March)

Event Time Altitude Azimuth Distance (km) Brightness Sun altitude
Rises 02:03:06 0° 194° (SSW) 2,882 6.7 -21.1°
Reaches altitude 10° 02:05:19 10° 194° (SSW) 1,988 5.8 -21.5°
Maximum altitude 02:09:46 90° 348° (NNW) 634 3.0 -22.4°
Enters shadow 02:11:54 31° 15° (NNE) 1,103 4.2 -22.8°
